FW6938 Weather Reports


time (UTC)temp
F
wind
direction
speed
knots
gust
knots
rain 1hr
in
rain 24hr
in
rain mn
in
humidity
%
barometer
mb
20220124103010 23 0 0.0 0.0 0.00 0.00 0.00 84 1022.7
20220124101520 23 0 0.0 0.0 0.00 0.00 0.00 85 1023.0
20220124100011 22 0 0.0 0.9 0.00 0.00 0.00 85 1023.1
20220124094516 22 0 0.0 1.7 0.00 0.00 0.00 86 1023.2
20220124093012 22 0 0.0 0.0 0.00 0.00 0.00 85 1023.5
20220124091523 22 0 0.0 1.7 0.00 0.00 0.00 87 1023.5
20220124090023 22 180 0.0 1.7 0.00 0.00 0.00 86 1023.6
20220124084518 22 0 0.0 0.9 0.00 0.00 0.00 85 1024.0
20220124083016 22 0 0.0 1.7 0.00 0.00 0.00 86 1024.0
20220124081523 22 0 0.0 0.0 0.00 0.00 0.00 86 1024.3
20220124080018 22 0 0.0 0.0 0.00 0.00 0.00 86 1024.5
20220124074525 22 0 0.0 0.0 0.00 0.00 0.00 86 1024.6
20220124073023 23 0 0.0 0.0 0.00 0.00 0.00 84 1024.7
20220124071542 23 0 0.0 0.0 0.00 0.00 0.00 84 1024.7
20220124070026 23 0 0.0 0.9 0.00 0.00 0.00 85 1025.0
20220124064526 23 0 0.0 0.9 0.00 0.00 0.00 84 1025.0
20220124063031 24 0 0.0 0.0 0.00 0.00 0.00 84 1025.1
20220124061510 24 0 0.0 1.7 0.00 0.00 0.00 84 1025.3
20220124060036 24 0 0.0 0.0 0.00 0.00 0.00 85 1025.4
20220124054521 24 0 0.0 0.0 0.00 0.00 0.00 82 1025.5
20220124053013 25 0 0.0 0.0 0.00 0.00 0.00 83 1025.3
20220124051513 25 0 0.0 0.0 0.00 0.00 0.00 83 1025.3
20220124050012 25 0 0.0 0.9 0.00 0.00 0.00 82 1025.5
20220124044510 25 0 0.0 0.0 0.00 0.00 0.00 82 1025.4
20220124043104 25 0 0.0 1.7 0.00 0.00 0.00 83 1025.5
20220124041623 25 0 0.0 0.0 0.00 0.00 0.00 82 1025.9
20220124040012 25 0 0.0 0.0 0.00 0.00 0.00 81 1025.7
20220124034511 26 0 0.0 0.0 0.00 0.00 0.00 82 1025.8
20220124033019 26 0 0.0 0.0 0.00 0.00 0.00 80 1025.9
20220124031510 26 0 0.0 0.9 0.00 0.00 0.00 80 1026.0
20220124030034 26 0 0.0 0.0 0.00 0.00 0.00 79 1025.9
20220124024510 27 0 0.0 0.0 0.00 0.00 0.00 78 1025.8
20220124023019 27 0 0.0 0.0 0.00 0.00 0.00 77 1025.7
20220124021525 27 0 0.0 0.0 0.00 0.00 0.00 77 1025.9
20220124020052 28 0 0.0 0.0 0.00 0.00 0.00 75 1025.9
20220124014510 29 0 0.0 0.9 0.00 0.00 0.00 73 1025.7
20220124013014 30 0 0.0 0.0 0.00 0.00 0.00 71 1025.7
20220124011528 31 0 0.0 1.7 0.00 0.00 0.00 69 1025.8
20220124010010 32 0 0.0 0.0 0.00 0.00 0.00 68 1025.8
20220124004510 33 0 0.0 1.7 0.00 0.00 0.00 66 1025.9
20220124003014 34 0 0.0 1.7 0.00 0.00 0.00 64 1025.9
20220124001509 35 0 0.0 3.5 0.00 0.00 0.00 63 1026.0
20220124000101 36 0 0.0 2.6 0.00 0.00 0.00 62 1026.0
20220123234541 36 252 0.0 3.5 0.00 0.00 0.00 61 1025.9
20220123233027 36 0 0.0 4.3 0.00 0.00 0.00 61 1026.0
20220123231528 36 0 0.9 5.2 0.00 0.00 0.00 60 1026.1
20220123230044 37 0 1.7 5.2 0.00 0.00 0.00 58 1026.3
20220123224515 37 0 0.9 6.1 0.00 0.00 0.00 58 1026.4
20220123223009 37 0 0.0 2.6 0.00 0.00 0.00 60 1026.6
20220123221513 36 0 0.0 5.2 0.00 0.00 0.00 60 1026.7
20220123220019 36 0 0.0 7.0 0.00 0.00 0.00 63 1026.6
20220123214537 36 0 0.0 2.6 0.00 0.00 0.00 63 1026.5
20220123213011 36 0 0.9 6.1 0.00 0.00 0.00 62 1026.7
20220123211536 36 238 3.5 7.0 0.00 0.00 0.00 62 1026.8
20220123210011 36 235 1.7 4.3 0.00 0.00 0.00 62 1026.8
20220123204510 36 0 0.9 6.1 0.00 0.00 0.00 62 1027.1
20220123203013 36 144 0.9 4.3 0.00 0.00 0.00 63 1027.1
20220123201514 35 281 1.7 5.2 0.00 0.00 0.00 63 1027.4
20220123200014 35 191 0.9 3.5 0.00 0.00 0.00 64 1027.7
20220123194535 35 0 0.9 3.5 0.00 0.00 0.00 65 1027.8
20220123193021 35 93 0.9 3.5 0.00 0.00 0.00 64 1028.2
20220123191510 34 194 0.9 4.3 0.00 0.00 0.00 67 1028.4
20220123190047 34 237 1.7 5.2 0.00 0.00 0.00 67 1028.8
20220123184534 33 194 1.7 4.3 0.00 0.00 0.00 69 1029.0
20220123183033 32 236 0.0 2.6 0.00 0.00 0.00 71 1029.3
20220123181510 31 236 0.9 3.5 0.00 0.00 0.00 71 1029.3
20220123180014 31 0 0.0 2.6 0.00 0.00 0.00 70 1029.7
20220123174510 31 59 0.0 2.6 0.00 0.00 0.00 71 1029.6
20220123173040 30 0 0.0 2.6 0.00 0.00 0.00 72 1029.5
20220123171520 27 103 0.0 2.6 0.00 0.00 0.00 77 1029.5
20220123170014 26 103 0.9 1.7 0.00 0.00 0.00 79 1029.6
20220123164523 25 150 0.0 1.7 0.00 0.00 0.00 86 1029.8
20220123163039 22 150 0.0 1.7 0.00 0.00 0.00 90 1029.9
20220123161517 20 0 0.0 0.0 0.00 0.00 0.00 87 1029.6
20220123160033 20 0 0.0 0.9 0.00 0.00 0.00 88 1029.6
20220123154513 20 0 0.0 0.9 0.00 0.00 0.00 89 1029.6
20220123153036 19 0 0.0 1.7 0.00 0.00 0.00 89 1029.9
20220123151523 18 0 0.0 0.9 0.00 0.00 0.00 87 1030.1
20220123150033 19 0 0.0 0.0 0.00 0.00 0.00 87 1029.6
20220123144557 19 0 0.0 0.0 0.00 0.00 0.00 89 1029.3
20220123143047 19 0 0.0 1.7 0.00 0.00 0.00 90 1029.3
20220123141516 19 0 0.0 0.0 0.00 0.00 0.00 88 1029.3
20220123140013 19 0 0.0 1.7 0.00 0.00 0.00 89 1029.0
20220123134517 19 0 0.0 0.9 0.00 0.00 0.00 88 1028.9
20220123133035 19 0 0.0 0.0 0.00 0.00 0.00 88 1028.8
20220123131534 19 0 0.0 1.7 0.00 0.00 0.00 88 1028.9
20220123130049 19 0 0.0 1.7 0.00 0.00 0.00 88 1028.7
20220123124520 19 0 0.0 0.0 0.00 0.00 0.00 88 1028.6
20220123123019 19 0 0.0 0.0 0.00 0.00 0.00 88 1028.6
20220123121513 20 0 0.0 0.0 0.00 0.00 0.00 87 1028.7
20220123120012 20 0 0.0 0.0 0.00 0.00 0.00 89 1028.8
20220123114517 20 0 0.0 0.0 0.00 0.00 0.00 87 1028.9
20220123113016 20 0 0.0 0.0 0.00 0.00 0.00 88 1028.9
20220123111519 20 0 0.0 0.0 0.00 0.00 0.00 89 1028.9
20220123110010 20 0 0.0 0.0 0.00 0.00 0.00 88 1029.1
20220123104510 20 0 0.0 0.0 0.00 0.00 0.00 87 1029.1